Regional Weather Roundup
Issued by NWS

Home | Current Version | Previous Version | Graphics & Text | Print | Product List | Glossary On
Versions: 1 2 3 4 5 6 7 8 9 10 11 12 13 14 15 16 17 18 19 20 21 22 23 24 25 26 27 28 29 30 31 32 33 34 35 36 37 38 39 40 41 42 43 44 45 46 47 48 49 50
000
ASUS43 KLSX 271107
RWRMO

WEATHER SUMMARY FOR MISSOURI
NATIONAL WEATHER SERVICE SPRINGFIELD MO
600 AM CDT WED JUL 27 2016

NOTE: "FAIR" INDICATES FEW OR NO CLOUDS BELOW 12,000 FEET WITH NO
       SIGNIFICANT WEATHER AND/OR OBSTRUCTIONS TO VISIBILITY.
       CURRENT SKY AND/OR WEATHER CONDITIONS ARE NOT AVAILABLE FOR
       CHILLICOTHE AND FARMINGTON.

MOZ001>031-035>038-043-044-053-054-271200-
...NORTHERN AND WESTERN MISSOURI...

CITY           SKY/WX    TMP DP  RH WIND       PRES   REMARKS
KANSAS CTY INT PTCLDY    67  65  93 N3        30.01S
KANSAS C DTWN  CLEAR     73  68  84 NW3       29.99F
LEE`S SUMMIT   CLEAR     71  68  90 E3        30.00F
ST JOSEPH      PTCLDY    65  63  93 NE3       30.01S
CHILLICOTHE      N/A     67  65  93 CALM      30.02S
KIRKSVILLE     MOCLDY    66  63  90 CALM      30.02S

$$
MOZ066>068-077>081-088>096-101>105-271200-
...SOUTHWEST MISSOURI...

CITY           SKY/WX    TMP DP  RH WIND       PRES   REMARKS
SPRINGFIELD    CLOUDY    74  71  91 SW6       30.02R
JOPLIN         CLOUDY    72  71  97 NE5       30.01R FOG
BRANSON        FOG       73  73 100 E8        30.01F VSB 1/2

$$
MOZ032>034-039>042-045>050-055>058-069>072-271200-
...CENTRAL MISSOURI...

CITY           SKY/WX    TMP DP  RH WIND       PRES   REMARKS
COLUMBIA       CLOUDY    72  71  97 CALM      30.01R FOG
JEFFERSON CITY PTCLDY    72  71  97 CALM      29.99S
ROLLA          PTCLDY    72  71  97 SE5       30.01S
SEDALIA        PTCLDY    72  70  93 CALM      30.01S
WHITEMAN AFB   PTCLDY    71  71 100 CALM      29.98F
OSAGE BEACH    CLOUDY    72  71  97 CALM      30.01F

$$
MOZ051-052-059>065-271200-
...EAST CENTRAL MISSOURI...

CITY           SKY/WX    TMP DP  RH WIND       PRES   REMARKS
ST LOUIS INTL  CLOUDY    79  73  82 SW3       30.01R
SPIRIT OF STL  CLOUDY    75  74  96 CALM      29.99R
ST CHARLES     CLOUDY    76  76 100 CALM      29.99R

$$
MOZ072>076-082>087-097>100-106>115-271200-
...SOUTH CENTRAL AND SOUTHEAST MISSOURI...

CITY           SKY/WX    TMP DP  RH WIND       PRES   REMARKS
CAPE GIRARDEAU PTCLDY    73  72  96 CALM      29.98R FOG
FARMINGTON     MOCLDY    71  71 100 CALM      30.02F
POPLAR BLUFF   CLOUDY    74  72  93 N5        29.98R FOG
WEST PLAINS    CLOUDY    72  69  90 CALM      30.04S

$$



USA.gov is the U.S. government's official web portal to all federal, state and local government web resources and services.